This is the latest recevied weather packets stored in our database for station/object KC9DRE. If no packets are shown the sender has not sent any weather packets the latest 10 day(s).
| Time | Temp. | Humidity | Pressure | Rain* | Wind** | Luminosity | Snow |
|---|---|---|---|---|---|---|---|
| 1787879142 | 20° C | 93% | 1015.8 hPa | 0 mm | - | 0 W/m² | - |
| 1787878838 | 20.56° C | 92% | 1015.8 hPa | 0 mm | - | 0 W/m² | - |
| 1787878537 | 20.56° C | 92% | 1015.7 hPa | 0 mm | - | 0 W/m² | - |
| 1787878232 | 20.56° C | 92% | 1015.7 hPa | 0 mm | - | 0 W/m² | - |
| 1787877928 | 21.11° C | 91% | 1015.5 hPa | 0 mm | - | 0 W/m² | - |
| 1787877623 | 21.11° C | 90% | 1015.4 hPa | 0 mm | - | 0 W/m² | - |
| 1787877319 | 21.67° C | 89% | 1015.4 hPa | 0 mm | - | 0 W/m² | - |
| 1787877014 | 21.67° C | 89% | 1015.3 hPa | 0 mm | - | 1 W/m² | - |
| 1787876709 | 22.22° C | 88% | 1015.2 hPa | 0 mm | - | 2 W/m² | - |
| 1787876404 | 22.22° C | 87% | 1015.3 hPa | 0 mm | - | 4 W/m² | - |
| 1787876103 | 22.78° C | 86% | 1015.2 hPa | 0 mm | - | 6 W/m² | - |
| 1787875798 | 22.78° C | 85% | 1015.1 hPa | 0 mm | - | 9 W/m² | - |
| 1787875497 | 23.33° C | 83% | 1015.2 hPa | 0 mm | - | 13 W/m² | - |
| 1787875195 | 23.89° C | 82% | 1015.2 hPa | 0 mm | - | 16 W/m² | - |
| 1787874895 | 23.89° C | 81% | 1015.2 hPa | 0 mm | - | 20 W/m² | - |
| 1787874590 | 24.44° C | 79% | 1015.2 hPa | 0 mm | - | 23 W/m² | - |
| 1787874284 | 24.44° C | 78% | 1015.1 hPa | 0 mm | - | 27 W/m² | - |
| 1787873978 | 25° C | 77% | 1015.3 hPa | 0 mm | - | 30 W/m² | - |
| 1787873679 | 25° C | 76% | 1015.2 hPa | 0 mm | - | 34 W/m² | - |
| 1787873379 | 25.56° C | 76% | 1015.5 hPa | 0 mm | - | 36 W/m² | - |
| 1787873078 | 25.56° C | 72% | 1015.3 hPa | 0 mm | - | 39 W/m² | - |
| 1787872773 | 26.11° C | 74% | 1015.3 hPa | 0 mm | - | 42 W/m² | - |
| 1787872470 | 26.11° C | 74% | 1015.2 hPa | 0 mm | - | 44 W/m² | - |
| 1787872169 | 26.67° C | 71% | 1015.3 hPa | 0 mm | - | 46 W/m² | - |
| 1787871869 | 27.78° C | 69% | 1015.2 hPa | 0 mm | - | 49 W/m² | - |
* Rain latest hour (hover to see other rain measurements)
** Current wind speed in m/s (hover to see current wind gust speed)